When you browse on this site, cookies collect data to enhance your experience and personalize the content and advertising you see.
Visit our Privacy Policy to learn more. By continuing to use the site, you agree to this use of cookies and data.
  • In Belgien
  • Länderverzeichnis
  • Für 7 Tage
  • Wassertemperatur
  • Wetterkarte
  • Widgets
  • user-avatar
    Anmelden

    Stündliche Wetter Barcelona

    Heute, 6 April, Montag

    Zeit Temperatur Niederschläge Wind Luftdruck Luftfeuchtigkeit
    00:00 +28°C° 0 mm 2 m/S 758 mmHg 83%
    01:00 +28°C° 0 mm 2 m/S 758 mmHg 83%
    02:00 +28°C° 0 mm 1 m/S 758 mmHg 83%
    03:00 +27°C° 0 mm 1 m/S 758 mmHg 83%
    04:00 +27°C° 0 mm 1 m/S 758 mmHg 83%
    05:00 +27°C° 0 mm 1 m/S 758 mmHg 84%
    06:00 +28°C° 0 mm 1 m/S 758 mmHg 77%
    07:00 +30°C° 0 mm 1 m/S 759 mmHg 70%
    08:00 +32°C° 0 mm 1 m/S 760 mmHg 59%
    09:00 +34°C° 0 mm 1 m/S 759 mmHg 51%
    10:00 +37°C° 0 mm 1 m/S 759 mmHg 43%
    11:00 +40°C° 0 mm 2 m/S 759 mmHg 35%
    12:00 +39°C° 0 mm 3 m/S 758 mmHg 39%
    13:00 +38°C° 0 mm 4 m/S 758 mmHg 42%
    14:00 +37°C° 0 mm 4 m/S 757 mmHg 46%
    15:00 +37°C° 0 mm 5 m/S 756 mmHg 48%
    16:00 +36°C° 0 mm 5 m/S 756 mmHg 49%
    17:00 +36°C° 0 mm 5 m/S 756 mmHg 50%
    18:00 +34°C° 0 mm 5 m/S 756 mmHg 58%
    19:00 +32°C° 0 mm 5 m/S 757 mmHg 67%
    20:00 +29°C° 0 mm 5 m/S 757 mmHg 75%
    21:00 +29°C° 0 mm 4 m/S 758 mmHg 74%
    22:00 +29°C° 0 mm 3 m/S 759 mmHg 74%
    23:00 +29°C° 0 mm 2 m/S 759 mmHg 73%

    Morgen, 7 April, Dienstag

    Zeit Temperatur Niederschläge Wind Luftdruck Luftfeuchtigkeit
    00:00 +28°C° 0 mm 2 m/S 759 mmHg 74%
    01:00 +28°C° 0 mm 1 m/S 758 mmHg 75%
    02:00 +27°C° 0 mm 1 m/S 758 mmHg 76%
    03:00 +27°C° 0 mm 1 m/S 758 mmHg 78%
    04:00 +27°C° 0 mm 1 m/S 758 mmHg 79%
    05:00 +27°C° 0 mm 1 m/S 758 mmHg 81%
    06:00 +28°C° 0 mm 1 m/S 759 mmHg 78%
    07:00 +29°C° 0 mm 1 m/S 759 mmHg 74%
    08:00 +30°C° 0 mm 1 m/S 760 mmHg 71%
    09:00 +32°C° 0 mm 2 m/S 760 mmHg 62%
    10:00 +35°C° 0 mm 2 m/S 760 mmHg 54%
    11:00 +38°C° 0 mm 2 m/S 760 mmHg 45%
    12:00 +37°C° 0 mm 3 m/S 759 mmHg 45%
    13:00 +37°C° 0 mm 3 m/S 758 mmHg 45%
    14:00 +37°C° 0 mm 3 m/S 757 mmHg 46%
    15:00 +36°C° 0 mm 3 m/S 757 mmHg 50%
    16:00 +35°C° 0 mm 3 m/S 756 mmHg 54%
    17:00 +33°C° 0 mm 3 m/S 756 mmHg 58%
    18:00 +32°C° 0 mm 4 m/S 756 mmHg 64%
    19:00 +30°C° 0 mm 4 m/S 757 mmHg 70%
    20:00 +29°C° 0 mm 4 m/S 757 mmHg 76%
    21:00 +28°C° 0 mm 4 m/S 758 mmHg 79%
    22:00 +28°C° 0 mm 3 m/S 758 mmHg 82%
    23:00 +28°C° 0 mm 3 m/S 759 mmHg 85%

    übermorgen, 8 April, Mittwoch

    Zeit Temperatur Niederschläge Wind Luftdruck Luftfeuchtigkeit
    00:00 +27°C° 0 mm 3 m/S 758 mmHg 85%
    01:00 +27°C° 0 mm 2 m/S 758 mmHg 86%
    02:00 +27°C° 0 mm 2 m/S 758 mmHg 87%
    03:00 +26°C° 0 mm 2 m/S 758 mmHg 88%
    04:00 +26°C° 0 mm 1 m/S 758 mmHg 90%
    05:00 +26°C° 0 mm 1 m/S 758 mmHg 91%
    06:00 +27°C° 0 mm 1 m/S 758 mmHg 83%
    07:00 +29°C° 0 mm 1 m/S 759 mmHg 75%
    08:00 +30°C° 0 mm 2 m/S 759 mmHg 68%
    09:00 +34°C° 0 mm 2 m/S 759 mmHg 57%
    10:00 +37°C° 0 mm 2 m/S 759 mmHg 46%
    11:00 +40°C° 0 mm 2 m/S 759 mmHg 35%
    12:00 +40°C° 0 mm 3 m/S 758 mmHg 37%
    13:00 +39°C° 0 mm 3 m/S 757 mmHg 40%
    14:00 +38°C° 0 mm 4 m/S 756 mmHg 42%
    15:00 +37°C° 0 mm 5 m/S 756 mmHg 45%
    16:00 +36°C° 0 mm 5 m/S 755 mmHg 49%
    17:00 +35°C° 0 mm 6 m/S 755 mmHg 52%
    18:00 +34°C° 0 mm 6 m/S 755 mmHg 58%
    19:00 +32°C° 0 mm 6 m/S 756 mmHg 64%
    20:00 +30°C° 0 mm 6 m/S 756 mmHg 70%
    21:00 +29°C° 0 mm 6 m/S 757 mmHg 74%
    22:00 +28°C° 0 mm 5 m/S 758 mmHg 77%
    23:00 +28°C° 0 mm 4 m/S 758 mmHg 81%

    9 April, Donnerstag

    Zeit Temperatur Niederschläge Wind Luftdruck Luftfeuchtigkeit
    00:00 +27°C° 0 mm 4 m/S 758 mmHg 80%
    01:00 +27°C° 0 mm 3 m/S 758 mmHg 80%
    02:00 +27°C° 0 mm 2 m/S 757 mmHg 80%
    03:00 +26°C° 0 mm 2 m/S 757 mmHg 80%
    04:00 +26°C° 0 mm 2 m/S 757 mmHg 80%
    05:00 +25°C° 0 mm 2 m/S 757 mmHg 80%
    06:00 +27°C° 0 mm 1 m/S 757 mmHg 71%
    07:00 +29°C° 0 mm 1 m/S 758 mmHg 63%
    08:00 +30°C° 0 mm 1 m/S 758 mmHg 54%
    09:00 +34°C° 0 mm 2 m/S 758 mmHg 47%
    10:00 +37°C° 0 mm 2 m/S 758 mmHg 40%
    11:00 +39°C° 0 mm 2 m/S 758 mmHg 33%
    12:00 +39°C° 0 mm 3 m/S 757 mmHg 36%
    13:00 +38°C° 0 mm 3 m/S 756 mmHg 38%
    14:00 +38°C° 0 mm 3 m/S 755 mmHg 41%
    15:00 +37°C° 0 mm 3 m/S 755 mmHg 44%
    16:00 +36°C° 0 mm 4 m/S 755 mmHg 46%
    17:00 +35°C° 0 mm 4 m/S 754 mmHg 49%
    18:00 +33°C° 0 mm 4 m/S 755 mmHg 57%
    19:00 +32°C° 0 mm 4 m/S 755 mmHg 64%
    20:00 +29°C° 0 mm 4 m/S 756 mmHg 72%
    21:00 +29°C° 0 mm 4 m/S 756 mmHg 75%
    22:00 +28°C° 0 mm 3 m/S 757 mmHg 77%
    23:00 +28°C° 0 mm 3 m/S 757 mmHg 79%

    10 April, Freitag

    Zeit Temperatur Niederschläge Wind Luftdruck Luftfeuchtigkeit
    00:00 +28°C° 0 mm 2 m/S 757 mmHg 81%
    01:00 +27°C° 0 mm 2 m/S 757 mmHg 83%
    02:00 +27°C° 0 mm 2 m/S 757 mmHg 85%
    03:00 +27°C° 0 mm 2 m/S 757 mmHg 86%
    04:00 +26°C° 0 mm 1 m/S 757 mmHg 86%
    05:00 +26°C° 0 mm 1 m/S 757 mmHg 87%
    06:00 +27°C° 0 mm 1 m/S 758 mmHg 79%
    07:00 +29°C° 0 mm 2 m/S 758 mmHg 72%
    08:00 +30°C° 0 mm 2 m/S 759 mmHg 64%
    09:00 +34°C° 0 mm 2 m/S 759 mmHg 54%
    10:00 +37°C° 0 mm 2 m/S 759 mmHg 44%
    11:00 +40°C° 0 mm 1 m/S 758 mmHg 34%
    12:00 +40°C° 0 mm 2 m/S 758 mmHg 34%
    13:00 +40°C° 0 mm 3 m/S 757 mmHg 33%
    14:00 +40°C° 0 mm 3 m/S 756 mmHg 33%
    15:00 +38°C° 0 mm 3 m/S 756 mmHg 38%
    16:00 +37°C° 0 mm 3 m/S 755 mmHg 44%
    17:00 +35°C° 0 mm 3 m/S 755 mmHg 49%
    18:00 +34°C° 0 mm 3 m/S 756 mmHg 56%
    19:00 +32°C° 0 mm 4 m/S 756 mmHg 64%
    20:00 +29°C° 0 mm 4 m/S 757 mmHg 71%
    21:00 +29°C° 0 mm 4 m/S 757 mmHg 72%
    22:00 +29°C° 0 mm 3 m/S 758 mmHg 73%
    23:00 +28°C° 0 mm 2 m/S 758 mmHg 74%

    11 April, Samstag

    Zeit Temperatur Niederschläge Wind Luftdruck Luftfeuchtigkeit
    00:00 +28°C° 0 mm 2 m/S 758 mmHg 73%
    01:00 +28°C° 0 mm 2 m/S 758 mmHg 73%
    02:00 +27°C° 0 mm 1 m/S 758 mmHg 72%
    03:00 +27°C° 0 mm 1 m/S 758 mmHg 74%
    04:00 +26°C° 0 mm 1 m/S 758 mmHg 77%
    05:00 +26°C° 0 mm 1 m/S 758 mmHg 80%
    06:00 +27°C° 0 mm 1 m/S 759 mmHg 75%
    07:00 +28°C° 0 mm 1 m/S 759 mmHg 71%
    08:00 +30°C° 0 mm 1 m/S 760 mmHg 66%
    09:00 +33°C° 0 mm 1 m/S 760 mmHg 55%
    10:00 +37°C° 0 mm 2 m/S 760 mmHg 44%
    11:00 +40°C° 0 mm 2 m/S 759 mmHg 33%
    12:00 +39°C° 0 mm 3 m/S 759 mmHg 36%
    13:00 +38°C° 0 mm 4 m/S 758 mmHg 40%
    14:00 +37°C° 0 mm 4 m/S 757 mmHg 43%
    15:00 +37°C° 0 mm 5 m/S 757 mmHg 45%
    16:00 +36°C° 0 mm 6 m/S 756 mmHg 46%
    17:00 +35°C° 0 mm 7 m/S 756 mmHg 48%
    18:00 +33°C° 0 mm 7 m/S 757 mmHg 56%
    19:00 +30°C° 0 mm 6 m/S 757 mmHg 65%
    20:00 +29°C° 0 mm 6 m/S 758 mmHg 73%
    21:00 +28°C° 0 mm 6 m/S 758 mmHg 76%
    22:00 +27°C° 0 mm 5 m/S 759 mmHg 78%
    23:00 +27°C° 0 mm 4 m/S 759 mmHg 81%
    Mehr zeigen